Regional Weather Roundup
Issued by NWS

Home | Current Version | Previous Version | Graphics & Text | Print | Product List | Glossary On
Versions: 1 2 3 4 5 6 7 8 9 10 11 12 13 14 15 16 17 18 19 20 21 22 23 24 25 26 27 28 29 30 31 32 33 34 35 36 37 38 39 40 41 42 43 44 45 46 47 48 49 50
000
ASUS45 KABQ 280710
RWRNM
WEATHER ROUNDUP FOR NEW MEXICO
NATIONAL WEATHER SERVICE ALBUQUERQUE NM
100 AM MDT MON JUL 28 2014

NOTE: "FAIR" MEANS FEW OR NO CLOUDS BELOW 12,000 FEET AGL WITH NO
       SIGNIFICANT WEATHER OR OBSTRUCTIONS TO VISION.

      THIS PRODUCT IS RELEASED AS TWO VERSIONS.  ONE VERSION NEAR
      THE TOP OF THE HOUR CONTAINING PRELIMINARY DATA FROM ALBUQUERQUE
      AND OTHER STATIONS.  A FINAL VERSION WITH ADDITIONAL DATA IS
      ISSUED ABOUT 10 MINUTES AFTER THE HOUR.

NMZ501-503-504-510>518-280800-
NORTHWEST PLATEAU/NORTHCENTRAL MOUNTAINS

CITY           SKY/WX    TMP DP  RH WIND       PRES   REMARKS
FARMINGTON     MOCLDY    65  61  87 E10       30.37S
LOS ALAMOS     CLOUDY    60  53  75 N15       30.51S
SANTA FE       CLOUDY    63  56  78 N18G26    30.42F
TAOS             N/A     57  54  88 E7        30.58S
ANGEL FIRE     RAIN      54  51  90 SW3       30.66S

$$
NMZ402-403-502-505>509-280800-
WESTCENTRAL MOUNTAINS/SOUTHWEST MOUNTAINS

CITY           SKY/WX    TMP DP  RH WIND       PRES   REMARKS
GALLUP         CLOUDY    63  53  70 CALM      30.41R
SILVER CITY    CLOUDY    68  55  64 NW16G22   30.31R

$$
NMZ407-409-411-412-280800-
SOUTHERN DESERTS

CITY           SKY/WX    TMP DP  RH WIND       PRES   REMARKS
LORDSBURG      FAIR      68  59  73 NW10      30.24S
DEMING         LGT RAIN  76  57  51 NW13      30.21R
LAS CRUCES     CLOUDY    73  62  70 W8        30.21S
HOLLOMAN AFB   MOCLDY    80  57  45 W10       30.16R
ALAMOGORDO     CLOUDY    82  52  34 W9        30.19R
T OR C         LGT RAIN  80  51  36 CALM      30.25R

$$
NMZ519>523-280800-
CENTRAL VALLEYS/CENTRAL HIGHLANDS

CITY           SKY/WX    TMP DP  RH WIND       PRES   REMARKS
ALBUQUERQUE    PTCLDY    77  54  44 E17       30.34R
DOUBLE EAGLE   MOCLDY    69  54  57 N14       30.39S
MORIARTY ARPT  FAIR      66  52  61 E17       30.40F
CLINES CORNERS PTCLDY    61  53  75 E17       30.46F
BELEN          FAIR      70  56  62 NW15      30.31F
SOCORRO        FAIR      76  52  42 N13       30.28S

$$
NMZ524>526-539-540-280800-
SOUTHCENTRAL MOUNTAINS

CITY           SKY/WX    TMP DP  RH WIND       PRES   REMARKS
RUIDOSO        PTCLDY    68  48  49 S17       30.44F

$$
NMZ527>531-280800-
NORTHEAST HIGHLANDS/NORTHEAST PLAINS

CITY           SKY/WX    TMP DP  RH WIND       PRES   REMARKS
LAS VEGAS      CLOUDY    58  56  93 N10       30.51F
RATON          NOT AVBL
CLAYTON        TSTM      62  56  80 VRB3G20   30.44R VSB 3/4

$$
NMZ532>537-280800-
EASTCENTRAL PLAINS

CITY           SKY/WX    TMP DP  RH WIND       PRES   REMARKS
TUCUMCARI      CLOUDY    77  59  53 N15       30.29R
CANNON AFB     PTCLDY    74  65  73 E12       30.26F
CLOVIS AIRPORT NOT AVBL

$$
NMZ028-029-538-280800-
SOUTHEAST PLAINS

CITY           SKY/WX    TMP DP  RH WIND       PRES   REMARKS
ROSWELL        PTCLDY    84  53  34 E8        30.16S
ARTESIA        MOCLDY    86  55  35 SE15      30.15R
CARLSBAD       PTCLDY    86  58  38 SE8       30.12R
HOBBS          MOCLDY    81  55  41 SE7       30.20R


$$


USA.gov is the U.S. government's official web portal to all federal, state and local government web resources and services.